Regional Weather Roundup
Issued by NWS

Home | Current Version | Previous Version | Text Only | Print | Product List | Glossary On
Versions: 1 2 3 4 5 6 7 8 9 10 11 12 13 14 15 16 17 18 19 20 21 22 23 24 25 26 27 28 29 30 31 32 33 34 35 36 37 38 39 40 41 42 43 44 45 46 47 48 49 50
000
ASUS43 KOAX 310902
RWRNE

WEATHER ROUNDUP FOR NEBRASKA
NATIONAL WEATHER SERVICE OMAHA NE
400 AM CDT MON AUG 31 2015

NOTES: SATELLITE DATA IS BEING USED TO AUGMENT CLOUD COVER ABOVE
       12000 FEET.
       "FAIR" INDICATES FEW OR NO CLOUDS BELOW 12,000 FEET WITH NO
       SIGNIFICANT WEATHER AND/OR OBSTRUCTIONS TO VISIBILITY.

  * THESE STATIONS DO NOT REPORT WEATHER SUCH AS RAIN...SNOW OR FOG.

NEZ001>004-019>022-054>056-311000-
NEBRASKA PANHANDLE

CITY           SKY/WX    TMP DP  RH WIND       PRES   REMARKS
SCOTTSBLUFF    MOCLDY    68  55  63 CALM      29.91R
ALLIANCE       MOCLDY    67  51  56 S10       29.90F
CHADRON        CLOUDY    72  52  49 NW7       29.84R
KIMBALL        MOCLDY    62  48  60 SW3       29.97S
SIDNEY         CLEAR     61  48  62 S9        29.95F
$$

NEZ057>060-069>072-079>082-311000-
SOUTHWEST NEBRASKA

CITY           SKY/WX    TMP DP  RH WIND       PRES   REMARKS
NORTH PLATTE   PTCLDY    62  55  77 SE6       29.93S
IMPERIAL       CLEAR     68  47  46 S9        29.93S
LEXINGTON      CLEAR     67  64  90 S14       29.93F
MC COOK        CLEAR     66  55  67 S8        29.93F
OGALLALA       CLEAR     61  48  62 W7        29.95R
$$

NEZ005>010-023>029-035>040-094-311000-
NORTH CENTRAL NEBRASKA

CITY           SKY/WX    TMP DP  RH WIND       PRES   REMARKS
VALENTINE      CLEAR     70  52  52 SW18      29.83F
AINSWORTH      CLEAR     68  59  73 S22G28    29.85F
BROKEN BOW     CLEAR     65  62  90 S7        29.93S
O`NEILL        CLEAR     65  64  96 S14       29.90S
ORD            CLEAR     63  61  93 S6        29.92S
THEDFORD       PTCLDY    68  57  68 S14       29.91F
$$

NEZ041-046>049-061>064-073>077-083>087-311000-
SOUTH CENTRAL NEBRASKA

CITY           SKY/WX    TMP DP  RH WIND       PRES   REMARKS
GRAND ISLAND   CLEAR     65  63  93 S9        29.94S
AURORA         CLEAR     65  65 100 S7        29.94F FOG
HASTINGS       CLEAR     65  63  93 S8        29.94F
HEBRON         CLEAR     62  62 100 SE3       29.95F FOG
HOLDREGE       CLEAR     63  61  94 S3        29.96R
KEARNEY *      CLEAR     63  59  88 S7        29.94F
YORK           CLOUDY    64  63  94 S8        29.95F FOG
$$

NEZ011>018-030>034-042>045-311000-
NORTHEAST NEBRASKA

CITY           SKY/WX    TMP DP  RH WIND       PRES   REMARKS
NORFOLK        PTCLDY    66  64  93 S9        29.91F
ALBION         CLEAR     63  61  93 SE3       29.93S FOG
BLAIR          FAIR      67  65  93 SE5       29.95S FOG
COLUMBUS *     CLEAR    N/A N/A N/A SE3       29.94S
FREMONT        CLEAR     66  64  94 SE3       29.96S FOG
TEKAMAH        FOG       61  61 100 S3        29.94F VSB 1/4
$$

NEZ050>053-065>068-078-088>093-311000-
SOUTHEAST NEBRASKA

CITY           SKY/WX    TMP DP  RH WIND       PRES   REMARKS
LINCOLN        CLEAR     64  64 100 S3        29.95F FOG
OMAHA EPPLEY   PTCLDY    66  66 100 SE5       29.95S
BEATRICE       CLEAR     65  64  97 SE3       29.95F FOG
FALLS CITY     FOG       65  65 100 CALM      29.94F VSB 1/4
NEBRASKA CITY  FOG       64  64  99 S5        29.96S VSB 1/2
PLATTSMOUTH    CLEAR     65  64  96 SE6       29.96S FOG
$$

NEZ044-045-051>053-067-311000-
OMAHA AREA

CITY           SKY/WX    TMP DP  RH WIND       PRES   REMARKS
EPPLEY FIELD   PTCLDY    66  66 100 SE5       29.95S
BLAIR          CLEAR     67  65  93 SE5       29.95S FOG
FREMONT        CLEAR     66  64  94 SE3       29.96S FOG
MILLARD          N/A     65  64  96 CALM      29.94F FOG
OFFUTT AFB     CLEAR     60  60 100 E3        29.94S
PLATTSMOUTH    CLEAR     65  64  96 SE6       29.96S FOG
WAHOO          FOG       61  60  97 SE3       29.95S VSB<1/4
$$



USA.gov is the U.S. government's official web portal to all federal, state and local government web resources and services.